Hourly Weather Kitki

Today, 30 July, Friday

Time Temperature Precipitation Wind Pressure Humidity
00:00 +17°C° 0 mm 3 mps 744 mmHg 71%
01:00 +16°C° 0 mm 2 mps 744 mmHg 76%
02:00 +16°C° 0 mm 3 mps 744 mmHg 77%
03:00 +14°C° 0 mm 3 mps 744 mmHg 78%
04:00 +14°C° 0 mm 3 mps 744 mmHg 79%
05:00 +16°C° 0 mm 3 mps 744 mmHg 72%
06:00 +18°C° 0 mm 4 mps 744 mmHg 66%
07:00 +19°C° 0 mm 4 mps 744 mmHg 59%
08:00 +20°C° 0 mm 5 mps 744 mmHg 55%
09:00 +22°C° 0 mm 6 mps 744 mmHg 51%
10:00 +23°C° 0 mm 7 mps 744 mmHg 47%
11:00 +23°C° 0 mm 7 mps 744 mmHg 45%
12:00 +24°C° 0 mm 7 mps 743 mmHg 43%
13:00 +26°C° 0 mm 7 mps 743 mmHg 40%
14:00 +24°C° 0 mm 7 mps 743 mmHg 43%
15:00 +24°C° 0 mm 6 mps 743 mmHg 46%
16:00 +24°C° 0 mm 6 mps 742 mmHg 49%
17:00 +23°C° 0 mm 5 mps 742 mmHg 53%
18:00 +22°C° 0 mm 4 mps 742 mmHg 57%
19:00 +21°C° 0 mm 3 mps 742 mmHg 61%
20:00 +20°C° 0 mm 3 mps 742 mmHg 62%
21:00 +19°C° 0 mm 3 mps 742 mmHg 63%
22:00 +18°C° 0 mm 3 mps 742 mmHg 64%
23:00 +17°C° 0 mm 3 mps 742 mmHg 63%

Tomorrow, 31 July, Saturday

Time Temperature Precipitation Wind Pressure Humidity
00:00 +17°C° 0 mm 2 mps 742 mmHg 63%
01:00 +16°C° 0 mm 2 mps 742 mmHg 62%
02:00 +16°C° 0 mm 2 mps 742 mmHg 63%
03:00 +15°C° 0 mm 2 mps 742 mmHg 65%
04:00 +15°C° 0 mm 2 mps 742 mmHg 66%
05:00 +17°C° 0 mm 2 mps 743 mmHg 64%
06:00 +18°C° 0 mm 2 mps 743 mmHg 61%
07:00 +20°C° 0 mm 2 mps 743 mmHg 59%
08:00 +22°C° 0 mm 3 mps 743 mmHg 55%
09:00 +25°C° 0 mm 3 mps 743 mmHg 51%
10:00 +26°C° 0 mm 3 mps 743 mmHg 46%
11:00 +27°C° 0 mm 3 mps 742 mmHg 45%
12:00 +28°C° 0 mm 3 mps 742 mmHg 44%
13:00 +29°C° 0 mm 4 mps 742 mmHg 42%
14:00 +28°C° 0 mm 4 mps 741 mmHg 45%
15:00 +28°C° 0 mm 4 mps 741 mmHg 47%
16:00 +28°C° 0 mm 5 mps 741 mmHg 50%
17:00 +26°C° 0 mm 4 mps 741 mmHg 55%
18:00 +25°C° 0 mm 4 mps 741 mmHg 61%
19:00 +22°C° 0 mm 3 mps 741 mmHg 67%
20:00 +21°C° 0 mm 4 mps 741 mmHg 67%
21:00 +20°C° 0 mm 4 mps 741 mmHg 67%
22:00 +19°C° 0 mm 4 mps 742 mmHg 68%
23:00 +18°C° 0 mm 4 mps 742 mmHg 68%

Day after tomorrow, 1 August, Sunday

Time Temperature Precipitation Wind Pressure Humidity
00:00 +17°C° 0 mm 3 mps 742 mmHg 69%
01:00 +16°C° 0 mm 3 mps 742 mmHg 69%
02:00 +16°C° 0 mm 3 mps 742 mmHg 71%
03:00 +14°C° 0 mm 3 mps 742 mmHg 72%
04:00 +14°C° 0 mm 3 mps 742 mmHg 74%
05:00 +16°C° 0 mm 3 mps 743 mmHg 70%
06:00 +18°C° 0 mm 4 mps 743 mmHg 67%
07:00 +19°C° 0 mm 4 mps 743 mmHg 63%
08:00 +20°C° 0 mm 4 mps 743 mmHg 59%
09:00 +22°C° 0 mm 4 mps 743 mmHg 55%
10:00 +23°C° 0 mm 4 mps 743 mmHg 50%
11:00 +23°C° 0 mm 4 mps 743 mmHg 52%
12:00 +22°C° 0 mm 4 mps 743 mmHg 54%
13:00 +22°C° 0 mm 4 mps 743 mmHg 56%
14:00 +20°C° 0.3 mm 4 mps 743 mmHg 66%
15:00 +18°C° 0.3 mm 3 mps 743 mmHg 76%
16:00 +16°C° 0.3 mm 2 mps 743 mmHg 86%
17:00 +16°C° 0.2 mm 2 mps 743 mmHg 86%
18:00 +16°C° 0.2 mm 1 mps 743 mmHg 86%
19:00 +15°C° 0.2 mm 0 mps 743 mmHg 85%
20:00 +16°C° 0 mm 1 mps 743 mmHg 86%
21:00 +16°C° 0 mm 1 mps 743 mmHg 86%
22:00 +16°C° 0 mm 1 mps 743 mmHg 86%
23:00 +16°C° 0.1 mm 2 mps 742 mmHg 88%

2 August, Monday

Time Temperature Precipitation Wind Pressure Humidity
00:00 +16°C° 0.1 mm 2 mps 742 mmHg 90%
01:00 +16°C° 0.1 mm 2 mps 742 mmHg 92%
02:00 +16°C° 0.4 mm 2 mps 742 mmHg 93%
03:00 +15°C° 0.4 mm 2 mps 742 mmHg 93%
04:00 +15°C° 0.4 mm 2 mps 742 mmHg 94%
05:00 +16°C° 0.3 mm 2 mps 742 mmHg 93%
06:00 +16°C° 0.3 mm 2 mps 742 mmHg 91%
07:00 +16°C° 0.3 mm 2 mps 742 mmHg 90%
08:00 +18°C° 0.5 mm 3 mps 742 mmHg 82%
09:00 +19°C° 0.5 mm 4 mps 743 mmHg 73%
10:00 +21°C° 0.5 mm 4 mps 743 mmHg 65%
11:00 +22°C° 0.1 mm 5 mps 743 mmHg 59%
12:00 +23°C° 0.1 mm 5 mps 743 mmHg 53%
13:00 +24°C° 0.1 mm 6 mps 743 mmHg 48%
14:00 +23°C° 0.2 mm 6 mps 743 mmHg 52%
15:00 +22°C° 0.2 mm 6 mps 743 mmHg 57%
16:00 +22°C° 0.2 mm 6 mps 743 mmHg 62%
17:00 +20°C° 0.4 mm 5 mps 743 mmHg 68%
18:00 +19°C° 0.4 mm 5 mps 743 mmHg 74%
19:00 +17°C° 0.4 mm 4 mps 744 mmHg 80%
20:00 +15°C° 0 mm 4 mps 744 mmHg 81%
21:00 +16°C° 0 mm 3 mps 744 mmHg 82%
22:00 +14°C° 0 mm 3 mps 744 mmHg 83%
23:00 +13°C° 0 mm 3 mps 745 mmHg 82%

3 August, Tuesday

Time Temperature Precipitation Wind Pressure Humidity
00:00 +13°C° 0 mm 3 mps 745 mmHg 81%
01:00 +13°C° 0 mm 4 mps 745 mmHg 81%
02:00 +12°C° 0 mm 4 mps 745 mmHg 81%
03:00 +12°C° 0 mm 4 mps 745 mmHg 82%
04:00 +11°C° 0 mm 4 mps 745 mmHg 82%
05:00 +13°C° 0 mm 5 mps 746 mmHg 78%
06:00 +14°C° 0 mm 5 mps 746 mmHg 75%
07:00 +16°C° 0 mm 6 mps 746 mmHg 71%
08:00 +17°C° 0 mm 6 mps 747 mmHg 66%
09:00 +20°C° 0 mm 6 mps 747 mmHg 61%
10:00 +21°C° 0 mm 6 mps 747 mmHg 56%
11:00 +21°C° 0 mm 6 mps 747 mmHg 55%
12:00 +21°C° 0 mm 5 mps 747 mmHg 55%
13:00 +21°C° 0 mm 5 mps 747 mmHg 55%
14:00 +21°C° 0 mm 4 mps 747 mmHg 54%
15:00 +22°C° 0 mm 4 mps 747 mmHg 54%
16:00 +22°C° 0 mm 4 mps 747 mmHg 53%
17:00 +21°C° 0 mm 3 mps 747 mmHg 58%
18:00 +19°C° 0 mm 2 mps 747 mmHg 64%
19:00 +19°C° 0 mm 1 mps 748 mmHg 69%
20:00 +18°C° 0 mm 1 mps 748 mmHg 71%
21:00 +18°C° 0 mm 1 mps 748 mmHg 74%
22:00 +16°C° 0 mm 1 mps 748 mmHg 76%
23:00 +15°C° 0 mm 1 mps 748 mmHg 78%

4 August, Wednesday

Time Temperature Precipitation Wind Pressure Humidity
00:00 +15°C° 0 mm 1 mps 748 mmHg 80%
01:00 +14°C° 0 mm 1 mps 748 mmHg 81%
02:00 +14°C° 0 mm 2 mps 749 mmHg 83%
03:00 +14°C° 0 mm 2 mps 749 mmHg 84%
04:00 +13°C° 0 mm 2 mps 749 mmHg 86%
05:00 +15°C° 0 mm 2 mps 749 mmHg 79%
06:00 +17°C° 0 mm 2 mps 749 mmHg 72%
07:00 +18°C° 0 mm 2 mps 749 mmHg 65%
08:00 +20°C° 0 mm 2 mps 749 mmHg 58%
09:00 +23°C° 0 mm 2 mps 749 mmHg 51%
10:00 +24°C° 0 mm 2 mps 749 mmHg 45%
11:00 +25°C° 0 mm 2 mps 749 mmHg 43%
12:00 +26°C° 0 mm 2 mps 749 mmHg 40%
13:00 +26°C° 0 mm 2 mps 749 mmHg 38%
14:00 +26°C° 0 mm 2 mps 748 mmHg 39%
15:00 +26°C° 0 mm 2 mps 748 mmHg 40%
16:00 +26°C° 0 mm 2 mps 748 mmHg 40%
17:00 +24°C° 0 mm 2 mps 748 mmHg 48%
18:00 +22°C° 0 mm 3 mps 748 mmHg 55%
19:00 +20°C° 0 mm 3 mps 748 mmHg 62%
20:00 +19°C° 0 mm 3 mps 748 mmHg 64%
21:00 +18°C° 0 mm 3 mps 748 mmHg 67%
22:00 +18°C° 0 mm 3 mps 749 mmHg 69%
23:00 +17°C° 0 mm 3 mps 749 mmHg 71%
Show more